Regional Weather Roundup
Issued by NWS

Home | Current Version | Previous Version | Graphics & Text | Print | Product List | Glossary On
Versions: 1 2 3 4 5 6 7 8 9 10 11 12 13 14 15 16 17 18 19 20 21 22 23 24 25 26 27 28 29 30 31 32 33 34 35 36 37 38 39 40 41 42 43 44 45 46 47 48 49 50
239
ASUS45 KTFX 120510
RWRMT
MONTANA REGIONAL WEATHER ROUNDUP
NATIONAL WEATHER SERVICE GREAT FALLS MT
1000 PM MST THU FEB 11 2016

NOTE: "FAIR" INDICATES FEW OR NO CLOUDS BELOW 12000 FEET WITH NO
SIGNIFICANT WEATHER AND/OR OBSTRUCTIONS TO VISIBILITY.

MTZ001>007-043-120600-
WEST OF THE DIVIDE

CITY           SKY/WX    TMP DP  RH WIND       PRES   REMARKS
KALISPELL      CLOUDY    34  31  88 CALM      30.24F
MISSOULA       CLOUDY    37  32  82 SW7       30.26F WCI  32
BUTTE          CLOUDY    34  30  85 SE6       30.26F WCI  29
MULLAN PASS    CLOUDY    34  31  88 S7        30.22S WCI  28
ANACONDA         N/A     41  32  70 CALM      30.25S
DEER LODGE       N/A     36  30  80 W3        30.26F
HAMILTON         N/A     43  37  81 CALM      30.25S
PLAINS           N/A     41  35  79 CALM      30.23F
THOMPSON FALLS   N/A     40  37  89 SW1       30.27F
$$

MTZ008-052>055-120600-
SOUTHWEST MONTANA

CITY           SKY/WX    TMP DP  RH WIND       PRES   REMARKS
BOZEMAN        CLOUDY    35  31  85 CALM      30.25F
DILLON         CLOUDY    38  29  70 S12       30.26S WCI  30
ENNIS          CLOUDY    45  30  57 S13       30.32S
TWIN BRIDGES     N/A     37  27  68 E3        30.22S
$$

MTZ009-010-012-014-046-048-049-054-120600-
EAST SLOPES AND CENTRAL MONTANA

CITY           SKY/WX    TMP DP  RH WIND       PRES   REMARKS
CUT BANK       MOCLDY    35  29  78 S3        30.25F
GREAT FALLS    CLOUDY    33  28  81 E5        30.26S
MALMSTROM AFB  CLOUDY    36  32  85 NE1       30.27S
HELENA         CLOUDY    41  28  60 W3        30.23S
CHOTEAU          N/A     36  30  80 SE5       30.27S
CONRAD           N/A     28  26  92 N2        30.25S
$$

MTZ011-013-016-021-045-047-050-051-120600-
NORTH CENTRAL MONTANA

CITY           SKY/WX    TMP DP  RH WIND       PRES   REMARKS
HAVRE          CLOUDY    31  29  92 CALM      30.27S
LEWISTOWN      CLOUDY    36  30  79 SE6       30.25S WCI  31
N BAR RANCH      N/A     37  28  70 CALM      30.27R
CHINOOK          N/A     30  28  93 CALM      30.28S
$$

MTZ017>020-022>027-061-062-120600-
NORTHEAST MONTANA

CITY           SKY/WX    TMP DP  RH WIND       PRES   REMARKS
GLASGOW        CLOUDY    30  26  85 N5        30.28R
JORDAN           N/A     31  29  92 CALM      30.27R
SIDNEY         CLOUDY    23  16  74 NE6       30.32R WCI  16
WOLF POINT     CLOUDY    28  20  71 E6        30.32R WCI  22
PLENTYWOOD       N/A     18  12  79 N8        30.32R WCI   7
POPLAR           N/A     23  18  80 NE8       30.33R WCI  14
SCOBEY           N/A     19  11  71 N7        30.27R WCI  10
$$

MTZ028>42-056>058-120600-
SOUTHCENTRAL AND SOUTHEAST MONTANA

CITY           SKY/WX    TMP DP  RH WIND       PRES   REMARKS
BAKER          CLOUDY    27  21  78 NW9       30.24S WCI  18
BILLINGS       MOCLDY    44  25  47 CALM      30.25R
LIVINGSTON     CLOUDY    42  25  50 NW6       30.23S
MILES CITY     CLOUDY    29  25  85 S3        30.27R
EKALAKA          N/A     26  22  85 S7        30.18R WCI  18
FORSYTH          N/A     34  30  86 S3        30.27S
LAUREL           N/A     41  21  44 CALM      30.21R
ROUNDUP          N/A     37  28  70 CALM      30.14S
$$

REGIONAL REPORTS...DAKOTAS

CITY           SKY/WX    TMP DP  RH WIND       PRES   REMARKS
WILLISTON      CLOUDY    21  16  81 N7        30.33R WCI  12
MINOT          CLOUDY    19  10  68 N9        30.30R WCI   8
DICKINSON      CLOUDY    21  17  84 N6        30.23R WCI  13
BEACH          CLOUDY    23  23 100 N5        30.29R
CROSBY         CLOUDY    16  16 100 N12       30.35R WCI   3
TIOGA          FLURRIES  16  16 100 NW9       30.34R WCI   4
WATFORD CITY   CLOUDY    19  16  86 NW5       30.32R
BISMARCK       CLOUDY    19  12  74 N3        30.30R
GRAND FORKS    PTCLDY     7   1  76 NW7       30.31S WCI  -5
FARGO          CLOUDY    13   7  77 N10       30.29S WCI   0
BUFFALO SD       N/A     30  24  78 N9        30.16R WCI  22
RAPID CITY     CLOUDY    31  28  89 N6        30.24R WCI  25
$$

REGIONAL REPORTS...WYOMING/IDAHO/WASHINGTON

CITY           SKY/WX    TMP DP  RH WIND       PRES   REMARKS
GILLETTE       CLEAR     30  25  81 CALM      30.22R
SHERIDAN       MOCLDY    41  23  48 CALM      30.20F
BUFFALO WY     CLOUDY    35  24  64 W6        30.24R WCI  30
CODY           CLOUDY    41  18  38 CALM      30.24R
YELLOWSTONE LA   N/A     33  21  61 W8        30.37S WCI  26
IDAHO FALLS    CLOUDY    28  24  85 N8        30.38R WCI  20
SALMON         CLOUDY    30  27  86 CALM      30.35F
BOISE          PTCLDY    38  31  76 S6        30.33R
SPOKANE        LGT RAIN  40  37  89 N3        30.22S
$$

REGIONAL REPORTS...ALBERTA

CITY           SKY/WX    TMP DP  RH WIND       PRES   REMARKS
EDMONTON       CLOUDY    18  10  73 E7        30.37R WCI   8
CALGARY        MOCLDY    37  30  75 E5        30.25S
LETHBRIDGE     MOCLDY    28  28 100 VRB2      30.27R
MEDICINE HAT   CLOUDY    36  32  87 N6        30.29R WCI  31
WATERTON GATE    N/A     41  25  52 SW14G20     N/A
CARDSTON         N/A     34  28  80 E2          N/A
MILK RIVER       N/A     28  28 100 NW3         N/A
ONEFOUR          N/A     34  34 100 NW13        N/A  WCI  25
$$

REGIONAL REPORTS...SASKATCHEWAN

CITY           SKY/WX    TMP DP  RH WIND       PRES   REMARKS
SWIFT CURRENT  CLOUDY    12  12 100 E13       30.32R WCI  -3
REGINA         CLOUDY     9   3  78 N8        30.40R WCI  -4
SASKATOON      PTCLDY     3   0  85 NE6       30.48R WCI  -8
CYPRESS HILLS    N/A     28  27  93 N5          N/A
VAL MARIE        N/A     25  21  86 E8          N/A  WCI  16
ROCKGLEN         N/A     16  14  93 NE5         N/A
ASSINIBOIA       N/A     16  10  79 E10         N/A  WCI   3
$$




USA.gov is the U.S. government's official web portal to all federal, state and local government web resources and services.